TimeEDT,TemperatureF,Dew PointF,Humidity,Sea Level PressureIn,VisibilityMPH,Wind Direction,Wind SpeedMPH,Gust SpeedMPH,PrecipitationIn,Events,Conditions,WindDirDegrees,DateUTC
12:13 AM,44.6,37.4,76,29.97,10.0,West,5.8,-,N/A,,Clear,280,2012-09-19 04:13:00
12:33 AM,44.6,37.4,76,29.98,10.0,WNW,5.8,-,N/A,,Clear,290,2012-09-19 04:33:00
12:53 AM,42.8,37.4,81,29.99,10.0,West,5.8,-,N/A,,Clear,280,2012-09-19 04:53:00
1:13 AM,42.8,37.4,81,29.98,10.0,Calm,Calm,-,N/A,,Clear,0,2012-09-19 05:13:00
1:34 AM,39.2,37.4,93,30.00,10.0,West,3.5,-,N/A,,Clear,260,2012-09-19 05:34:00
1:54 AM,41.0,37.4,87,30.00,10.0,West,4.6,-,N/A,,Clear,270,2012-09-19 05:54:00
2:14 AM,41.0,37.4,87,30.00,10.0,Calm,Calm,-,N/A,,Clear,0,2012-09-19 06:14:00
2:34 AM,39.2,37.4,93,30.01,10.0,WSW,3.5,-,N/A,,Clear,250,2012-09-19 06:34:00
2:54 AM,39.2,37.4,93,30.01,10.0,West,3.5,-,N/A,,Clear,260,2012-09-19 06:54:00
3:14 AM,39.2,37.4,93,30.01,10.0,Calm,Calm,-,N/A,,Clear,0,2012-09-19 07:14:00
3:34 AM,39.2,37.4,93,30.01,10.0,Calm,Calm,-,N/A,,Clear,0,2012-09-19 07:34:00
3:54 AM,37.4,35.6,93,30.02,10.0,Calm,Calm,-,N/A,,Clear,0,2012-09-19 07:54:00
4:15 AM,37.4,35.6,93,30.02,10.0,Calm,Calm,-,N/A,,Clear,0,2012-09-19 08:15:00
4:35 AM,37.4,35.6,93,30.02,10.0,Calm,Calm,-,N/A,,Clear,0,2012-09-19 08:35:00
4:55 AM,37.4,37.4,100,30.03,10.0,Calm,Calm,-,N/A,,Clear,0,2012-09-19 08:55:00
5:15 AM,37.4,35.6,93,30.03,10.0,Calm,Calm,-,N/A,,Clear,0,2012-09-19 09:15:00
5:55 AM,37.4,35.6,93,30.04,10.0,Calm,Calm,-,N/A,,Clear,0,2012-09-19 09:55:00
6:15 AM,37.4,35.6,93,30.05,10.0,Calm,Calm,-,N/A,,Clear,0,2012-09-19 10:15:00
6:55 AM,35.6,35.6,100,30.06,10.0,Calm,Calm,-,N/A,,Clear,0,2012-09-19 10:55:00
7:15 AM,37.4,35.6,93,30.07,10.0,Calm,Calm,-,N/A,,Clear,0,2012-09-19 11:15:00
7:36 AM,37.4,35.6,93,30.08,10.0,Calm,Calm,-,N/A,,Clear,0,2012-09-19 11:36:00
7:56 AM,39.2,37.4,93,30.09,10.0,Calm,Calm,-,N/A,,Clear,0,2012-09-19 11:56:00
8:16 AM,41.0,39.2,93,30.09,10.0,Calm,Calm,-,N/A,,Clear,0,2012-09-19 12:16:00
8:51 AM,46.4,41.0,81,30.10,10.0,Calm,Calm,-,N/A,,Clear,0,2012-09-19 12:51:00
9:11 AM,48.2,42.8,82,30.10,10.0,Calm,Calm,-,N/A,,Clear,0,2012-09-19 13:11:00
9:31 AM,50.0,42.8,76,30.11,10.0,SW,4.6,-,N/A,,Clear,230,2012-09-19 13:31:00
9:51 AM,51.8,42.8,71,30.11,10.0,SW,5.8,-,N/A,,Clear,230,2012-09-19 13:51:00
10:11 AM,51.8,42.8,71,30.11,10.0,Calm,Calm,-,N/A,,Clear,0,2012-09-19 14:11:00
10:31 AM,53.6,44.6,72,30.11,10.0,Calm,Calm,-,N/A,,Clear,0,2012-09-19 14:31:00
10:52 AM,55.4,42.8,63,30.11,10.0,SW,3.5,-,N/A,,Clear,220,2012-09-19 14:52:00
11:12 AM,57.2,42.8,59,30.11,10.0,SW,3.5,-,N/A,,Clear,220,2012-09-19 15:12:00
11:32 AM,57.2,41.0,55,30.11,10.0,SSW,5.8,-,N/A,,Clear,200,2012-09-19 15:32:00
11:52 AM,59.0,37.4,45,30.11,10.0,SSW,6.9,-,N/A,,Clear,210,2012-09-19 15:52:00
12:12 PM,60.8,37.4,42,30.11,10.0,SW,11.5,-,N/A,,Clear,230,2012-09-19 16:12:00
12:32 PM,60.8,39.2,45,30.11,10.0,WSW,10.4,-,N/A,,Clear,250,2012-09-19 16:32:00
12:52 PM,62.6,37.4,39,30.11,10.0,SW,5.8,16.1,N/A,,Scattered Clouds,220,2012-09-19 16:52:00
1:12 PM,62.6,37.4,39,30.10,10.0,West,9.2,-,N/A,,Scattered Clouds,260,2012-09-19 17:12:00
1:32 PM,62.6,35.6,37,30.10,10.0,WSW,13.8,-,N/A,,Clear,240,2012-09-19 17:32:00
1:53 PM,62.6,35.6,37,30.09,10.0,WSW,6.9,-,N/A,,Clear,250,2012-09-19 17:53:00
2:13 PM,64.4,35.6,34,30.09,10.0,WSW,5.8,9.2,N/A,,Clear,250,2012-09-19 18:13:00
2:33 PM,64.4,35.6,34,30.08,10.0,SW,10.4,18.4,N/A,,Clear,220,2012-09-19 18:33:00
2:53 PM,64.4,35.6,34,30.08,10.0,SSW,5.8,-,N/A,,Clear,210,2012-09-19 18:53:00
3:13 PM,64.4,35.6,34,30.07,10.0,SW,8.1,20.7,N/A,,Clear,230,2012-09-19 19:13:00
3:33 PM,66.2,39.2,37,30.07,10.0,SSW,11.5,-,N/A,,Clear,210,2012-09-19 19:33:00
4:13 PM,66.2,35.6,32,30.06,10.0,SW,9.2,-,N/A,,Clear,220,2012-09-19 20:13:00
4:53 PM,66.2,37.4,35,30.05,10.0,SW,10.4,-,N/A,,Clear,220,2012-09-19 20:53:00
5:14 PM,66.2,35.6,32,30.04,10.0,SW,9.2,18.4,N/A,,Clear,220,2012-09-19 21:14:00
5:34 PM,64.4,37.4,37,30.03,10.0,SSW,9.2,-,N/A,,Clear,200,2012-09-19 21:34:00
5:54 PM,64.4,35.6,34,30.04,10.0,SSW,11.5,-,N/A,,Clear,210,2012-09-19 21:54:00
6:14 PM,64.4,35.6,34,30.03,10.0,SSW,8.1,-,N/A,,Clear,200,2012-09-19 22:14:00
6:34 PM,64.4,35.6,34,30.02,10.0,SSW,9.2,-,N/A,,Clear,210,2012-09-19 22:34:00
6:54 PM,62.6,37.4,39,30.02,10.0,South,6.9,-,N/A,,Clear,190,2012-09-19 22:54:00
7:14 PM,62.6,35.6,37,30.01,10.0,SSW,5.8,-,N/A,,Clear,200,2012-09-19 23:14:00
7:34 PM,59.0,37.4,45,30.01,10.0,South,6.9,-,N/A,,Clear,190,2012-09-19 23:34:00
7:55 PM,57.2,37.4,48,30.01,10.0,South,5.8,-,N/A,,Clear,180,2012-09-19 23:55:00
8:15 PM,59.0,39.2,48,30.01,10.0,South,8.1,-,N/A,,Clear,170,2012-09-20 00:15:00
8:35 PM,60.8,39.2,45,30.01,10.0,South,8.1,-,N/A,,Clear,170,2012-09-20 00:35:00
8:55 PM,60.8,39.2,45,30.02,10.0,South,6.9,-,N/A,,Clear,180,2012-09-20 00:55:00
9:15 PM,60.8,39.2,45,30.02,10.0,South,9.2,-,N/A,,Clear,180,2012-09-20 01:15:00
9:35 PM,59.0,42.8,55,30.02,10.0,South,6.9,-,N/A,,Clear,170,2012-09-20 01:35:00
9:55 PM,59.0,42.8,55,30.01,10.0,South,10.4,-,N/A,,Clear,170,2012-09-20 01:55:00
10:15 PM,59.0,42.8,55,30.01,10.0,South,9.2,-,N/A,,Clear,170,2012-09-20 02:15:00
10:35 PM,59.0,42.8,55,30.01,10.0,South,10.4,-,N/A,,Clear,170,2012-09-20 02:35:00
10:56 PM,57.2,41.0,55,30.01,10.0,South,11.5,-,N/A,,Scattered Clouds,190,2012-09-20 02:56:00
11:16 PM,57.2,39.2,51,30.01,10.0,South,9.2,-,N/A,,Mostly Cloudy,180,2012-09-20 03:16:00
11:31 PM,57.2,39.2,51,30.01,10.0,South,9.2,-,N/A,,Overcast,180,2012-09-20 03:31:00
11:51 PM,57.2,39.2,51,30.01,10.0,South,8.1,-,N/A,,Mostly Cloudy,190,2012-09-20 03:51:00